Location: *
(33.8649°S, 62.1526°E)
Time: 11:40:54
(UTC+00:00)

Thor Agena Rocket - Pass Details

Date: 17 January 2021
Orbit: 760 x 807 km, 99.0° (Epoch: 02 March)

Event Time Altitude Azimuth Distance (km) Brightness Sun altitude
Exits shadow 17:59:48 41° 130° (SE) 1,154 4.4 -28.3°
Drops below altitude 10° 18:04:00 10° 178° (S) 2,371 6.7 -28.8°
Sets 18:06:25 0° 185° (S) 3,299 7.7 -29.0°
